Abilene, TX

1:47 AM CST on February 23, 2017 (GMT -0600)
Abilene Regional

Weather History for KABI - October, 2011

Change the Weather History Date:

Sunday, October 2, 2011

  Actual Average Record
Temperature  
Mean Temperature 74 °F 70 °F  
Max Temperature 89 °F 82 °F 99 °F (2000)
Min Temperature 59 °F 59 °F 40 °F (1975)
Degree Days  
Heating Degree Days 0 1  
Month to date heating degree days 0 2  
Since 1 July heating degree days 0 13  
Cooling Degree Days 9 6  
Month to date cooling degree days 11 13  
Year to date cooling degree days 3353 2284  
Growing Degree Days 24 (Base 50)    
Moisture  
Dew Point 40 °F    
Average Humidity 33    
Maximum Humidity 46    
Minimum Humidity 19    
Precipitation  
Precipitation 0.00 in 0.08 in 1.50 in (1941)
Month to date precipitation 0.00 0.17  
Year to date precipitation 10.63 19.37  
Sea Level Pressure  
Sea Level Pressure 30.11 in    
Wind  
Wind Speed 9 mph (SSE)    
Max Wind Speed 16 mph    
Max Gust Speed 21 mph    
Visibility 10 miles    
Events      
T = Trace of Precipitation, MM = Missing Value Source: NWS Daily Summary

Daily Weather History Graph

Daily Weather History Graph

Search for Another Location

Airport or City:

Trip Planner

Search our weather history database for the weather conditions in past years. The results will help you decide how hot, cold, wet, or windy it might be!

Date:

Astronomy

Oct. 02, 2011 Rise Set
Actual Time 7:33 AM CDT 7:22 PM CDT
Civil Twilight 7:08 AM CDT 7:46 PM CDT
Nautical Twilight 6:40 AM CDT 8:15 PM CDT
Astronomical Twilight 6:11 AM CDT 8:43 PM CDT
Moon 1:22 PM CDT (10/2) 11:41 PM CDT (10/2)
Length of Visible Light 12h 38m
Length of Day
11h 49m
Waxing Crescent, 35% of the Moon is Illuminated
Oct 2
Waxing Crescent
Oct 3
First Quarter
Oct 11
Full
Oct 19
Last Quarter
Oct 26
New

Hourly Weather History & Observations

Time (CDT) Temp. Heat Index Dew Point Humidity Pressure Visibility Wind Dir Wind Speed Gust Speed Precip Events Conditions
12:52 AM 62.1 °F - 30.9 °F 31% 30.13 in 10.0 mi SE 4.6 mph - N/A   Clear
1:52 AM 64.0 °F - 30.9 °F 29% 30.13 in 10.0 mi SE 9.2 mph - N/A   Clear
2:52 AM 62.1 °F - 32.0 °F 32% 30.13 in 10.0 mi SSE 5.8 mph - N/A   Clear
3:52 AM 62.1 °F - 32.0 °F 32% 30.12 in 10.0 mi SSE 6.9 mph - N/A   Clear
4:52 AM 61.0 °F - 33.1 °F 35% 30.12 in 10.0 mi SE 4.6 mph - N/A   Clear
5:52 AM 60.1 °F - 33.1 °F 36% 30.13 in 10.0 mi SSE 6.9 mph - N/A   Clear
6:52 AM 59.0 °F - 33.1 °F 38% 30.14 in 10.0 mi SE 8.1 mph - N/A   Clear
7:52 AM 59.0 °F - 34.0 °F 39% 30.16 in 10.0 mi SSE 8.1 mph - N/A   Clear
8:52 AM 66.0 °F - 37.0 °F 34% 30.17 in 10.0 mi SSE 9.2 mph - N/A   Clear
9:52 AM 73.0 °F - 51.1 °F 46% 30.17 in 10.0 mi SSW 12.7 mph - N/A   Clear
10:52 AM 75.9 °F - 51.1 °F 42% 30.18 in 10.0 mi SSW 10.4 mph - N/A   Clear
11:52 AM 80.1 °F 79.9 °F 53.1 °F 39% 30.17 in 10.0 mi SSW 9.2 mph - N/A   Clear
12:52 PM 82.9 °F - 48.9 °F 31% 30.14 in 10.0 mi WSW 4.6 mph - N/A   Clear
1:52 PM 86.0 °F - 42.1 °F 21% 30.11 in 10.0 mi Variable 4.6 mph - N/A   Clear
2:52 PM 87.1 °F - 43.0 °F 21% 30.08 in 10.0 mi Variable 5.8 mph - N/A   Clear
3:52 PM 88.0 °F - 45.0 °F 22% 30.06 in 10.0 mi SSW 5.8 mph - N/A   Clear
4:52 PM 89.1 °F - 43.0 °F 20% 30.04 in 10.0 mi ESE 12.7 mph - N/A   Clear
5:52 PM 88.0 °F - 42.1 °F 20% 30.04 in 10.0 mi SE 11.5 mph - N/A   Clear
6:52 PM 84.9 °F - 44.1 °F 24% 30.05 in 10.0 mi SE 13.8 mph - N/A   Clear
7:52 PM 80.1 °F - 43.0 °F 27% 30.07 in 10.0 mi SE 10.4 mph - N/A   Clear
8:52 PM 75.9 °F - 41.0 °F 29% 30.08 in 10.0 mi SE 9.2 mph - N/A   Clear
9:52 PM 70.0 °F - 41.0 °F 35% 30.09 in 10.0 mi SE 6.9 mph - N/A   Clear
10:52 PM 70.0 °F - 39.9 °F 33% 30.10 in 10.0 mi SSE 8.1 mph - N/A   Clear
11:52 PM 69.1 °F - 37.9 °F 32% 30.10 in 10.0 mi SSE 9.2 mph - N/A   Clear